Theta_e
338 354 358 355 352 350 352 353 353 352 350 349 349 350 350 350 351 354 355 355 356 355 355 354 354 356 356 357 355 356 356 358 358 359 358 357 357 357 357 355 356 354 358
341 352 357 354 351 351 354 354 353 353 352 352 351 350 349 348 348 350 354 354 354 353 353 353 352 355 356 356 356 356 355 357 357 357 357 357 357 356 356 355 360 355 358
341 351 353 353 351 353 355 355 354 353 355 354 355 354 354 353 349 347 352 354 353 352 352 352 352 352 353 353 353 353 353 353 355 354 354 352 352 355 354 354 355 355 357
343 350 350 353 352 355 357 356 353 354 353 352 351 349 349 349 353 350 349 353 353 352 351 352 351 351 350 350 349 349 349 352 352 351 349 348 347 354 354 354 354 355 356
344 348 353 353 354 355 356 356 354 353 352 350 349 348 348 348 348 350 349 350 352 352 351 350 350 350 350 349 348 348 350 351 350 349 347 348 350 352 354 351 353 354 353
344 345 352 353 354 356 356 354 353 352 351 349 347 348 348 349 349 348 348 348 350 351 350 349 348 349 349 350 351 351 350 350 350 344 348 346 351 354 353 352 352 352 353
340 344 349 353 354 356 355 354 353 352 350 348 348 348 348 348 349 348 347 348 348 348 349 348 347 347 348 348 348 347 350 347 348 342 343 347 353 353 353 352 351 350 351
339 343 348 353 354 356 356 355 353 351 350 348 348 349 349 349 348 348 348 348 347 347 347 346 343 344 346 347 347 348 349 349 343 342 341 346 350 350 351 351 351 350 350
339 341 345 347 353 355 355 354 353 352 351 349 349 349 348 347 347 347 348 348 348 347 346 345 344 345 346 345 348 348 348 349 344 344 340 342 347 348 350 350 350 350 351
337 340 342 345 346 350 352 354 353 352 351 350 348 348 347 345 344 344 348 347 347 347 346 346 345 344 343 342 341 344 349 350 344 341 343 345 347 346 348 350 350 350 350
335 338 342 343 344 345 345 350 352 352 351 350 348 348 346 343 344 342 345 343 343 344 344 343 342 341 342 342 343 347 349 344 342 340 338 346 346 346 347 349 350 351 351
332 335 339 344 343 343 343 348 346 345 346 347 346 346 346 345 345 343 346 345 342 341 341 342 342 343 342 340 343 347 345 343 343 340 340 347 347 347 347 348 349 350 351
332 335 337 344 346 343 343 346 345 345 346 348 349 349 348 345 345 344 344 343 345 345 340 340 340 341 339 341 343 340 339 341 343 343 342 346 346 346 347 347 349 348 348
331 334 337 341 345 346 343 345 346 343 345 346 348 350 348 346 345 346 344 346 346 342 346 342 341 345 344 342 340 338 339 340 343 343 342 345 345 347 346 348 348 348 348
331 334 338 341 346 347 346 344 345 343 343 345 346 348 347 346 348 348 347 345 346 346 344 343 343 345 344 343 341 340 338 340 342 342 342 345 345 347 347 348 347 348 348
332 334 337 339 345 346 347 346 345 346 344 344 345 348 351 347 348 347 348 347 346 346 344 343 342 343 343 341 341 341 339 340 341 342 340 344 345 346 346 347 348 346 348
336 336 339 341 343 347 348 347 344 343 343 343 343 350 351 352 352 352 346 347 347 349 352 350 347 345 342 341 340 340 340 342 342 343 342 340 344 346 346 347 346 345 349
342 342 342 338 339 345 346 345 342 341 342 342 342 343 350 352 353 352 347 347 349 350 349 346 345 343 342 340 340 339 339 340 341 343 344 341 341 341 344 346 347 346 346
345 346 347 345 339 342 346 344 345 346 343 342 343 342 345 348 350 351 347 349 353 351 349 347 345 345 343 342 340 341 341 340 340 340 343 344 342 341 341 346 348 349 348
346 349 350 349 348 344 344 345 340 340 341 342 341 343 345 345 347 348 349 350 352 350 349 349 348 346 345 344 339 337 341 342 342 342 342 343 343 343 343 342 346 343 348
345 348 350 350 353 347 342 339 338 335 338 339 340 345 345 346 347 349 348 349 352 350 351 352 353 349 346 342 337 336 338 343 343 344 344 342 343 343 343 342 341 341 344
343 346 349 351 354 352 347 347 343 340 339 340 341 345 346 346 346 347 349 349 353 347 352 353 353 347 344 342 335 332 328 331 338 342 343 343 344 344 342 342 341 342 342
344 346 347 352 357 357 356 349 347 345 343 341 342 342 345 347 346 347 350 350 356 354 346 356 354 348 343 338 334 331 326 322 327 338 338 340 344 343 341 341 342 342 342
345 347 349 354 358 355 355 351 353 344 340 342 343 344 345 348 348 347 349 349 355 349 349 354 351 347 348 335 334 334 334 332 323 322 333 337 339 341 343 340 338 341 341
344 343 346 351 352 353 351 350 347 347 343 343 343 351 351 351 350 349 349 350 353 350 349 347 346 344 346 340 331 331 331 330 328 324 320 328 333 337 341 338 339 339 336
347 347 344 342 347 349 348 348 348 346 345 342 344 343 343 344 345 350 350 351 352 353 352 351 344 340 339 334 334 333 331 327 328 325 323 325 325 327 327 327 327 329 329
Wind_Speed
13 17 12 12 11 10 10 11 10 11 10 10 9 10 9 9 8 8 8 8 9 9 10 9 10 10 10 11 10 10 8 8 9 10 9 9 8 9 8 4 5 13 11
16 17 14 13 12 11 11 11 12 12 11 11 9 9 9 8 7 7 8 8 8 9 8 8 8 8 9 9 9 9 9 9 8 7 7 11 10 8 7 6 8 12 11
16 17 16 13 13 12 11 11 10 10 9 10 9 9 9 8 7 7 7 7 8 8 8 7 6 6 7 6 6 6 6 6 7 4 5 4 13 7 6 7 9 10 11
15 15 15 14 13 12 11 11 11 11 10 10 9 9 9 7 7 7 6 7 6 9 8 7 6 5 4 3 2 2 2 5 4 5 7 4 9 8 6 6 7 7 10
14 13 15 14 13 13 11 11 11 10 10 9 9 9 9 7 8 6 6 5 6 9 8 7 6 5 4 2 0 1 2 3 3 10 3 7 3 9 6 3 8 7 6
14 13 17 14 12 12 11 11 10 10 9 9 9 8 9 7 8 7 6 5 6 7 7 6 4 3 4 5 5 4 5 3 10 4 4 7 3 9 6 5 6 5 6
15 13 15 13 12 12 12 12 11 10 9 9 9 8 9 8 8 7 7 6 6 5 5 4 4 2 4 5 4 3 5 2 8 7 6 3 13 5 6 6 5 4 4
14 13 15 13 12 11 12 12 11 10 9 9 9 9 10 9 8 8 7 7 7 6 4 3 2 2 3 4 2 1 3 6 7 4 5 2 9 3 2 4 5 5 5
14 12 14 15 13 12 11 11 11 9 9 8 8 8 9 8 8 8 7 7 6 5 5 4 2 2 2 3 4 2 1 7 13 3 5 2 7 3 1 2 3 5 6
13 11 13 14 14 14 13 11 10 9 8 8 8 8 8 8 7 7 7 7 6 6 5 4 2 2 1 0 1 1 2 9 12 5 3 8 4 2 2 4 3 4 4
12 12 11 12 13 13 13 12 10 8 8 8 9 9 10 7 9 11 11 7 6 6 5 4 3 2 3 5 3 3 8 6 4 4 3 8 1 2 2 3 4 5 5
15 14 11 11 11 10 7 12 10 10 10 9 9 9 8 4 3 5 8 6 6 6 6 5 5 5 8 5 9 9 8 1 2 3 5 5 1 2 1 2 2 5 6
15 12 13 12 9 10 9 7 6 6 6 6 7 7 4 5 5 6 6 7 7 8 7 9 8 8 3 5 2 4 6 3 2 1 9 4 1 2 1 4 5 3 5
16 15 13 12 11 10 7 7 6 6 6 6 8 8 5 5 5 3 4 2 4 6 1 4 4 3 5 6 8 7 5 4 2 1 9 6 2 3 2 4 4 5 6
16 15 14 12 11 10 9 6 6 6 7 7 7 9 6 6 3 4 3 5 3 3 6 5 6 5 7 8 8 5 6 5 3 3 0 9 6 5 5 6 6 6 6
14 15 14 14 12 11 10 8 7 6 6 7 7 7 9 7 5 5 6 6 6 5 6 5 7 6 7 7 8 6 7 6 6 4 4 7 9 7 7 7 9 8 9
12 13 14 13 13 13 12 10 8 7 8 7 8 9 9 9 8 8 7 7 7 6 6 8 8 8 8 7 7 7 8 7 7 7 6 5 10 11 10 10 10 9 10
11 12 13 13 14 14 11 9 8 8 8 8 8 9 13 13 12 10 9 8 8 6 7 8 7 7 7 7 6 6 7 8 9 9 9 7 6 5 12 12 12 12 11
12 11 13 14 15 14 12 10 9 9 9 9 9 10 13 15 15 12 10 9 9 7 9 8 8 8 8 7 8 9 7 8 9 10 10 10 10 8 6 18 15 13 12
13 12 12 11 12 12 10 10 10 10 11 11 11 11 14 13 15 13 12 12 11 9 10 10 9 8 7 4 7 9 9 8 9 9 10 10 10 11 11 9 11 11 15
14 14 14 13 13 11 11 11 11 13 11 12 13 16 15 14 15 14 12 12 11 12 11 10 8 10 5 3 1 6 9 12 12 11 10 10 12 12 12 11 9 8 12
16 16 16 17 16 15 13 11 11 11 11 11 12 13 16 16 16 14 14 13 12 11 12 12 11 8 6 6 3 2 4 6 11 11 11 11 10 9 10 13 12 12 9
16 18 18 18 18 17 17 11 10 10 9 10 13 12 14 16 16 16 15 13 12 10 11 9 9 12 7 5 5 4 3 5 2 2 4 6 8 8 9 10 12 12 10
13 14 16 16 16 15 16 13 15 13 14 13 11 10 9 13 15 16 16 15 12 8 6 4 9 11 11 7 3 7 7 4 5 4 3 4 4 8 8 7 4 7 7
7 9 10 11 13 14 14 16 12 15 12 10 9 9 9 9 10 13 14 13 10 6 5 6 6 8 8 6 5 3 8 9 10 7 6 3 2 4 3 4 4 3 4
8 7 5 5 9 10 12 13 14 14 11 10 7 7 8 7 7 9 10 8 7 8 9 9 8 9 9 9 7 8 8 4 6 8 9 7 8 2 4 5 6 5 4
Wind_Direction
153 130 137 149 153 148 141 132 126 120 112 111 113 109 111 112 115 112 103 112 108 113 100 98 101 101 100 100 96 91 82 72 82 90 91 81 83 84 94 97 190 109 112
139 138 150 152 154 155 145 136 132 130 125 127 121 120 115 112 110 112 107 124 117 111 108 102 103 106 107 106 109 104 97 90 85 96 126 123 85 72 73 61 68 109 123
138 139 157 154 157 159 146 141 136 133 126 113 117 109 108 107 117 119 114 116 123 112 108 100 100 104 104 112 114 109 95 99 102 102 263 235 85 65 69 84 98 123 129
137 146 147 154 158 158 153 145 135 136 128 123 116 108 99 98 91 119 109 107 129 124 113 102 92 86 87 84 80 74 97 115 118 208 214 87 100 78 69 79 104 123 133
144 148 129 156 158 154 147 136 138 136 128 120 113 109 105 101 94 93 110 115 102 121 113 104 97 106 98 53 282 127 149 134 201 239 80 116 92 101 92 92 143 142 182
147 157 132 153 158 154 159 145 145 139 132 122 113 112 107 103 98 105 105 115 104 106 107 92 78 81 58 42 96 119 116 120 262 89 56 96 19 95 108 95 67 61 91
150 143 148 155 162 159 153 153 154 148 140 130 123 119 112 107 102 102 115 119 112 107 105 92 84 50 43 38 70 135 123 224 278 46 79 17 81 96 129 124 122 109 99
150 153 138 156 170 168 159 160 158 156 148 138 134 129 117 112 109 109 110 119 124 126 122 99 43 38 39 31 25 136 156 258 225 44 35 83 83 65 131 129 123 132 130
155 162 157 163 171 174 166 166 163 162 154 147 147 136 128 127 120 118 120 120 123 134 143 154 151 86 62 33 41 87 220 285 294 45 343 337 91 107 129 160 144 145 152
162 169 165 164 170 177 166 171 167 168 163 162 157 147 143 137 135 137 147 126 130 134 135 147 163 163 186 227 352 339 243 253 257 352 11 64 70 294 198 189 170 160 166
173 175 178 172 172 190 164 156 173 178 177 177 172 169 183 167 170 178 83 131 143 146 153 163 179 199 247 220 218 264 250 254 51 2 357 92 153 251 272 217 172 177 178
180 180 186 183 180 182 168 155 184 173 185 191 189 173 219 132 130 38 115 155 160 168 175 188 205 223 236 216 171 192 236 30 335 15 61 105 309 293 239 201 203 179 190
183 183 194 176 198 185 184 175 182 179 187 190 198 200 188 168 166 206 155 170 170 196 193 196 186 221 224 297 311 306 316 292 314 3 96 123 276 296 326 172 188 198 187
187 189 194 187 192 214 190 194 186 195 192 203 198 202 201 209 176 227 221 156 213 183 157 240 219 282 262 261 277 293 249 275 273 347 115 140 232 266 225 182 168 170 184
189 192 199 200 202 197 216 196 209 206 199 211 201 200 226 223 212 226 232 255 266 235 204 220 236 236 242 242 262 274 271 274 242 266 301 155 197 231 231 208 197 195 178
194 193 201 201 197 210 212 219 206 216 209 222 218 213 215 232 212 235 224 235 238 245 258 259 249 240 236 252 243 241 262 257 229 234 239 161 185 221 236 241 215 210 200
194 189 200 205 200 208 212 211 221 216 217 220 224 219 222 223 217 251 234 235 235 238 250 246 254 248 254 259 248 257 240 237 257 237 247 255 163 198 220 232 236 232 217
207 192 194 205 202 205 215 215 226 226 233 228 228 223 215 223 226 220 232 234 236 230 241 244 242 250 256 253 256 262 260 244 237 235 233 242 223 232 190 217 227 228 227
201 209 201 207 213 203 209 220 225 232 232 239 232 228 221 222 224 230 238 237 235 237 245 244 238 242 259 254 251 231 239 265 251 245 233 229 233 234 236 173 204 223 229
211 211 222 213 220 207 212 212 222 222 225 230 233 233 229 229 226 224 232 238 233 230 240 238 238 251 243 301 307 319 290 253 245 250 254 241 234 230 226 233 187 211 220
207 211 216 216 214 211 208 215 217 224 224 229 229 230 231 228 230 228 242 240 237 245 242 237 236 228 228 193 321 289 291 279 243 255 244 245 233 226 231 223 232 227 189
219 219 218 218 212 208 211 217 228 227 233 234 234 233 229 235 234 233 235 246 244 249 235 246 232 222 220 192 138 77 280 278 270 262 248 248 245 267 242 224 224 231 251
222 222 221 222 217 214 220 215 217 240 234 237 235 236 229 234 239 236 243 242 253 240 254 220 235 231 223 181 175 164 247 246 359 284 286 304 279 237 239 250 219 227 223
231 231 234 234 229 225 219 228 220 226 232 235 244 251 244 234 238 240 239 242 247 260 237 221 216 228 254 207 179 210 229 218 225 251 230 230 286 258 226 218 301 253 243
324 298 267 233 240 235 229 230 229 233 253 249 253 261 275 280 259 254 247 246 246 235 247 232 214 219 237 241 213 177 219 223 222 233 244 222 240 274 44 52 83 75 63
14 356 344 266 239 237 233 229 238 255 254 274 261 272 258 265 269 244 265 258 255 247 246 246 218 207 210 217 219 219 223 211 221 225 233 219 208 154 81 77 57 42 72